Weather Roundup
Issued by NWS Corpus Christi, TX

Home | Current Version | Previous Version | Text Only | Print | Product List | Glossary On
Versions: 1 2 3 4 5 6 7 8 9 10 11 12 13 14 15 16 17 18 19 20 21 22 23 24 25 26 27 28 29 30 31 32 33 34 35 36 37 38 39 40 41 42 43 44 45 46 47 48 49 50
973
ASUS44 KCRP 191010
HRRCRP

SOUTH TEXAS REGIONAL WEATHER ROUNDUP
NATIONAL WEATHER SERVICE CORPUS CHRISTI TX
400 AM CST SUN NOV 19 2017


TXZ229>244-191100-
...CORPUS CHRISTI AREA OBSERVATIONS...

CITY           SKY/WX    TMP DP  RH WIND       PRES   REMARKS
CORPUS CHRISTI CLEAR     56  39  53 N18G31    30.25R
NAS CORPUS CHR CLEAR     59  42  53 N26G38    30.24R
ROCKPORT       PTCLDY    55  40  56 N20G26    30.25R
KINGSVILLE ARP FAIR      57  40  53 N13       30.28R
KINGSVILLE NAS CLEAR     57  40  52 N18G25    30.26R
ALICE          CLEAR     56  35  45 N15G26    30.27R
$$

...VICTORIA AREA OBSERVATIONS...

CITY           SKY/WX    TMP DP  RH WIND       PRES   REMARKS
PORT LAVACA    NOT AVBL
VICTORIA       CLEAR     50  36  58 N10       30.28R
BEEVILLE       FAIR      53  37  53 N13G20    30.28R
PLEASANTON     CLOUDY    50  34  53 N7        30.33S
SAN ANTONIO    CLEAR     49  32  52 N8        30.33S
$$

...LAREDO AREA OBSERVATIONS...

CITY           SKY/WX    TMP DP  RH WIND       PRES   REMARKS
LAREDO         CLEAR     55  36  48 N10       30.31R
COTULLA        CLEAR     53  33  46 NE8       30.32R
DEL RIO        CLOUDY    46  35  65 NW6       30.35R
MCALLEN        CLEAR     64  39  39 N20G29    30.24R
HEBBRONVILLE   CLEAR     53  36  51 N10       30.29R
$$

...OTHER TEXAS OBSERVATIONS...

CITY           SKY/WX    TMP DP  RH WIND       PRES   REMARKS
BROWNSVILLE    CLEAR     64  47  53 N15G25    30.18R
HOUSTON        CLEAR     51  36  56 N12       30.25R
COL. STATION   CLEAR     47  37  68 N9        30.29R
AUSTIN         CLEAR     44  35  70 N8        30.31S
WACO           CLEAR     43  34  70 NW7       30.32S
FORT WORTH     CLEAR     44  35  70 NW9       30.29S
WICHITA FALLS  CLEAR     36  26  67 NW8       30.32S
LUBBOCK        CLOUDY    28  14  55 CALM      30.34S
EL PASO        PTCLDY    45  22  40 NE5       30.29F
$$

...MARINE OBSERVATIONS...

STATION/POSITION TIME  SKY/WX   TEMP    WIND        PRES    VSBY  WAVE   SWELL
                                AIR SEA DIR/SP/G                  HT/PER HT/PER
                 (UTC)          (F)     (DEG/KT/KT) (MB)    (MI)  (FT/S) (FT/S)
PORT ARANSAS     1000            57 72  360/ 24/ 27 1023.6R
BUOY 90 E PORT A 0950            64 78   10/ 27/ 35 1020.1R        10/ 7
BUOY 200 E PT IS 0950            75 80   20/ 25/ 29 1016.1R         5/ 5
BUOY 15 E GALVES 0850            58 72  360/ 27/ 35 1020.6          6/ 5
$$




USA.gov is the U.S. government's official web portal to all federal, state and local government web resources and services.